Location: Beetenbrück
(52.8113°N, 9.5946°E)
Time: 21:33:33
(UTC+00:00)

Cosmos 2322 - Pass Details

Date: 14 April 2026
Orbit: 839 x 854 km, 71.0° (Epoch: 12 May)

Event Time Altitude Azimuth Distance (km) Brightness Sun altitude
Rises 20:03:59 0° 214° (SW) 3,408 6.8 -14.7°
Reaches altitude 10° 20:06:26 10° 216° (SW) 2,478 6.1 -15.0°
Maximum altitude 20:12:08 77° 303° (WNW) 882 3.9 -15.6°
Drops below altitude 10° 20:17:54 10° 30° (NNE) 2,497 6.3 -16.3°
Sets 20:20:22 0° 32° (NNE) 3,437 7.0 -16.6°
